Tekamah, NE

6:29 AM CDT on September 20, 2017 (GMT -0500)
Tekamah

Weather History for KTQE - March, 2013

Change the Weather History Date:

Friday, March 29, 2013

  Actual Average Record
Temperature  
Mean Temperature 48 °F -  
Max Temperature 70 °F 52 °F 88 °F (1986)
Min Temperature 27 °F 33 °F 7 °F (1969)
Degree Days  
Heating Degree Days 17    
Moisture  
Dew Point 31 °F    
Average Humidity 61    
Maximum Humidity 96    
Minimum Humidity 22    
Precipitation  
Precipitation 0.00 in - - ()
Sea Level Pressure  
Sea Level Pressure 30.16 in    
Wind  
Wind Speed 4 mph (SSE)    
Max Wind Speed 17 mph    
Max Gust Speed 21 mph    
Visibility 6 miles    
Events Rain    
Averages and records for this station are not official NWS values.
T = Trace of Precipitation, MM = Missing Value Source: NWS Daily Summary

Daily Weather History Graph

Daily Weather History Graph

Search for Another Location

Airport or City:

Trip Planner

Search our weather history database for the weather conditions in past years. The results will help you decide how hot, cold, wet, or windy it might be!

Date:

Astronomy

Mar. 29, 2013 Rise Set
Actual Time 7:12 AM CDT 7:47 PM CDT
Civil Twilight 6:44 AM CDT 8:15 PM CDT
Nautical Twilight 6:11 AM CDT 8:48 PM CDT
Astronomical Twilight 5:37 AM CDT 9:22 PM CDT
Moon 10:51 PM CDT (3/29) 8:19 AM CDT (3/29)
Length of Visible Light 13h 30m
Length of Day
12h 34m
Waning Gibbous, 93% of the Moon is Illuminated
Mar 29
Waning Gibbous
Apr 2
Last Quarter
Apr 10
New
Apr 18
First Quarter
Apr 25
Full

Hourly Weather History & Observations

Time (CDT) Temp. Windchill Dew Point Humidity Pressure Visibility Wind Dir Wind Speed Gust Speed Precip Events Conditions
12:54 AM 35.1 °F - 28.9 °F 78% 30.22 in 7.0 mi Calm Calm - N/A   Clear
1:54 AM 34.0 °F - 28.9 °F 82% 30.21 in 6.0 mi Calm Calm - N/A   Haze
2:54 AM 33.1 °F - 28.9 °F 85% 30.20 in 5.0 mi Calm Calm - N/A   Clear
3:54 AM 33.1 °F - 28.9 °F 85% 30.19 in 4.0 mi Calm Calm - N/A   Clear
4:54 AM 30.0 °F - 27.0 °F 88% 30.19 in 4.0 mi Calm Calm - N/A   Clear
5:54 AM 28.0 °F - 27.0 °F 96% 30.20 in 3.0 mi Calm Calm - N/A   Clear
6:08 AM 30.2 °F - 24.8 °F 80% 30.19 in 1.8 mi Calm Calm - N/A   Haze
6:38 AM 30.2 °F - 26.6 °F 86% 30.19 in 2.5 mi Calm Calm - N/A   Clear
6:54 AM 27.0 °F - 25.0 °F 92% 30.21 in 2.0 mi Calm Calm - N/A   Clear
7:13 AM 30.2 °F - 24.8 °F 80% 30.20 in 0.8 mi Calm Calm - N/A   Haze
7:40 AM 28.4 °F 23.3 °F 26.6 °F 93% 30.21 in 1.2 mi SSW 4.6 mph - N/A   Clear
7:54 AM 30.0 °F 23.2 °F 27.0 °F 88% 30.23 in 2.0 mi SSW 6.9 mph - N/A   Clear
8:14 AM 33.8 °F 29.6 °F 30.2 °F 87% 30.22 in 3.0 mi South 4.6 mph - N/A   Clear
8:54 AM 39.0 °F 34.8 °F 32.0 °F 76% 30.24 in 4.0 mi SSE 5.8 mph - N/A   Haze
9:54 AM 44.1 °F 40.1 °F 35.1 °F 71% 30.25 in 4.0 mi SE 6.9 mph - N/A   Haze
10:54 AM 51.1 °F - 37.9 °F 61% 30.23 in 5.0 mi South 6.9 mph - N/A   Haze
11:54 AM 59.0 °F - 37.9 °F 46% 30.21 in 6.0 mi SSE 15.0 mph - N/A   Haze
12:54 PM 62.1 °F - 34.0 °F 35% 30.18 in 8.0 mi SSE 17.3 mph - N/A   Clear
1:54 PM 64.9 °F - 35.1 °F 33% 30.15 in 7.0 mi SSE 15.0 mph 20.7 mph N/A   Clear
2:54 PM 66.9 °F - 33.1 °F 28% 30.12 in 8.0 mi SSE 12.7 mph 19.6 mph N/A   Clear
3:54 PM 69.1 °F - 30.9 °F 24% 30.09 in 10.0 mi SSE 12.7 mph 19.6 mph N/A   Clear
4:54 PM 69.1 °F - 30.0 °F 23% 30.07 in 10.0 mi SSE 12.7 mph - N/A   Clear
5:54 PM 69.1 °F - 28.9 °F 22% 30.06 in 8.0 mi SSE 13.8 mph - N/A   Clear
6:54 PM 64.9 °F - 28.9 °F 26% 30.06 in 9.0 mi SSE 10.4 mph - N/A   Clear
7:54 PM 57.9 °F - 30.9 °F 36% 30.05 in 9.0 mi SSE 10.4 mph - N/A   Clear
8:54 PM 55.0 °F - 33.1 °F 43% 30.03 in 8.0 mi SE 10.4 mph - N/A   Clear
9:54 PM 55.9 °F - 33.1 °F 42% 30.03 in 10.0 mi SE 13.8 mph - N/A   Clear
10:54 PM 55.9 °F - 33.1 °F 42% 30.06 in 10.0 mi SSE 9.2 mph - N/A   Overcast
11:54 PM 55.0 °F - 37.0 °F 51% 30.04 in 10.0 mi SSW 5.8 mph - 0.00 in Rain Light Rain